[[{"header":{"parameterUnit":"m.s-1","parameterCategory":1,"la1":30.2991,"la2":30.254,"lo1":-89.0895,"lo2":-89.0444,"dy":0.0017,"dx":0.0017,"nx":28,"ny":28,"refTime":"2023-07-30T03:00:00:Z","depth":0,"parameterNumber":2,"parameterNumberName":"U-component_of_WINDS"},"data":[0,0,0,0,0,0,0,0,0,0,0,0,0,0,0,0,0,0,0,0,0,0,0,0,0,0,0,0,0,0,0,0,0,0,0,0,0,0,0,0,0,0,0,0,0,0,0,0,0,0,0,0,0,0,0,0,0,0,1.2154,1.2155,0,1.2257,1.2258,1.2259,1.2257,1.2256,1.2254,1.2253,1.2364,1.2369,1.2373,0,0,0,0,0,0,0,0,0,0,0,0,0,1.196,1.1964,1.2154,1.2155,1.2156,1.2257,1.2258,1.226,1.2258,1.2256,1.2254,1.2252,1.2363,1.2368,1.2373,0,0,0,0,0,0,0,0,0,0,0,0,0,1.2052,1.1965,1.2153,1.2167,1.2169,1.2257,1.2258,1.226,1.2258,1.2256,1.2254,1.2252,1.2361,1.2368,1.2374,1.2456,0,0,1.2393,1.2396,0,0,0,0,0,0,0,0,1.2047,1.2059,1.2164,1.2166,1.2169,1.2242,1.2231,1.2326,1.2258,1.2225,1.2253,1.2251,1.2326,1.2335,1.2359,1.2461,1.2466,1.2394,1.2398,1.2401,1.2402,0,0,0,0,0,0,0,1.204,1.2055,1.2195,1.2165,1.2169,1.217,1.2181,1.2249,1.2286,1.2227,1.2227,1.2239,1.2327,1.2353,1.2362,1.2467,1.2394,1.24,1.2403,1.2406,1.2643,1.2645,0,0,0,0,0,0,1.203,1.2049,1.2191,1.2198,1.2101,1.2175,1.2187,1.2221,1.2285,1.2293,1.2241,1.2239,1.2343,1.2354,1.2366,1.2467,1.2401,1.2407,1.241,1.2641,1.2644,1.2646,0,0,0,0,0,0,1.2026,1.2043,1.2187,1.2124,1.2142,1.2181,1.2219,1.2224,1.225,1.2295,1.2303,1.2261,1.2342,1.2357,1.2433,1.2471,1.2409,1.2415,1.2638,1.2642,1.2645,1.2669,0,0,0,0,0,0,1.2021,1.2041,1.2072,1.2124,1.2145,1.2252,1.2221,1.2228,1.226,1.2259,1.2316,1.2323,1.2341,1.2424,1.244,1.2478,1.242,1.2635,1.2639,1.2644,1.2665,1.2673,1.268,0,0,0,0,0,1.2014,1.2075,1.2073,1.2091,1.2184,1.2254,1.2266,1.2284,1.2263,1.2295,1.2324,1.2321,1.2463,1.2432,1.245,1.2491,1.2632,1.2638,1.2643,1.2662,1.2672,1.268,0,0,0,0,0,0,1.2028,1.2083,1.2081,1.2161,1.2203,1.2253,1.2294,1.2294,1.2344,1.234,1.2362,1.2375,1.2452,1.2479,1.2442,1.2574,1.2546,1.2555,1.2554,1.2563,1.2571,1.2563,1.2426,0,0,0,0,0,1.204,1.2091,1.2136,1.2203,1.2224,1.2255,1.2286,1.2296,1.2341,1.2359,1.2394,1.2439,1.2494,1.253,1.2583,1.2669,1.2682,1.2706,1.2713,1.2719,1.2728,1.2776,1.2788,1.2664,1.2664,1.2664,0,0,1.2067,1.2103,1.2134,1.2207,1.224,1.2294,1.227,1.2328,1.2369,1.2369,1.2443,1.247,1.2522,1.2604,1.2642,1.2629,1.2764,1.2726,1.2731,1.2736,1.2783,1.2795,1.2805,1.2668,1.2667,1.2667,0,0,1.2143,1.2174,1.2234,1.2267,1.2317,1.2338,1.2352,1.2403,1.242,1.2495,1.2496,1.2546,1.264,1.2677,1.2708,1.2798,1.2797,1.2814,1.2854,1.2901,1.2911,1.292,1.2953,1.2965,1.2822,1.2822,1.2822,0,1.217,1.2249,1.2265,1.2323,1.2355,1.2356,1.2417,1.245,1.2516,1.2539,1.2523,1.2641,1.2676,1.2767,1.2789,1.2814,1.2832,1.2809,1.2908,1.2917,1.2925,1.2958,1.297,1.2824,1.2824,1.2824,1.2824,0,1.2281,1.2336,1.2378,1.244,1.2478,1.2537,1.2563,1.2599,1.2606,1.2629,1.2705,1.2747,1.2809,1.2831,1.2839,1.2924,1.2914,1.2903,1.2875,1.2939,1.297,1.2982,1.2827,1.2826,1.2826,1.2825,0,0,1.237,1.2439,1.2454,1.2483,1.2538,1.2582,1.2642,1.2701,1.2732,1.2778,1.283,1.2909,1.2899,1.2934,1.2946,1.2987,1.3057,1.2971,1.2973,1.2987,1.3155,1.3165,1.3179,1.3057,1.3059,1.3061,1.3152,0,1.2453,1.2558,1.2574,1.2667,1.2719,1.272,1.2773,1.2813,1.2836,1.2885,1.2911,1.2967,1.2948,1.297,1.301,1.304,1.3092,1.3034,1.3108,1.311,1.3096,1.3195,1.3205,1.3288,1.3164,1.3166,1.3167,0,1.2564,1.2611,1.2709,1.2758,1.278,1.2827,1.2883,1.2928,1.2975,1.2989,1.3028,1.3035,1.3099,1.3067,1.3157,1.3117,1.3148,1.3167,1.3171,1.318,1.3144,1.3208,1.3315,1.3328,1.3186,1.3184,1.3183,0,1.2622,1.2709,1.2779,1.2803,1.2861,1.2895,1.2921,1.2965,1.2999,1.3048,1.3071,1.3127,1.3159,1.3203,1.3226,1.32,1.3314,1.3284,1.3329,1.3329,1.3355,1.3353,1.347,1.3372,1.3372,1.3372,1.3371,0,1.2714,1.2774,1.2806,1.2849,1.2917,1.2935,1.3003,1.3028,1.3067,1.3117,1.3122,1.3169,1.3194,1.3246,1.3264,1.3336,1.335,1.3364,1.3369,1.3365,1.3363,1.3387,1.3382,1.3375,1.3374,1.3374,1.3373,0,1.279,1.2813,1.289,1.2938,1.2952,1.3,1.3042,1.3086,1.3107,1.317,1.3186,1.3221,1.3282,1.3308,1.3383,1.3395,1.3478,1.3478,1.3462,1.3464,1.3509,1.3505,1.3646,1.3666,1.3553,1.3554,1.3555,0,1.2848,1.2894,1.2947,1.298,1.3006,1.3059,1.3094,1.3113,1.315,1.3206,1.3243,1.3303,1.3352,1.3449,1.3483,1.354,1.3542,1.3588,1.3551,1.3546,1.3545,1.3542,1.3548,1.3595,1.3596,1.3597,1.3598,0,1.2949,1.2958,1.3007,1.3061,1.3102,1.3145,1.3188,1.3215,1.3241,1.3282,1.3343,1.3381,1.3457,1.3517,1.3577,1.3605,1.3607,1.3609,1.3623,1.362,1.361,1.3617,1.3482,1.3606,1.3605,1.3605,1.3604,1.3604,1.3019,1.306,1.3104,1.3159,1.3193,1.3232,1.3275,1.3302,1.3353,1.3415,1.3423,1.3489,1.3535,1.3615,1.3646,1.3699,1.3688,1.3707,1.3713,1.3718,1.3721,1.36,1.371,1.3709,1.3709,1.3709,1.3709,0,1.3121,1.3149,1.3199,1.3258,1.3302,1.3297,1.3344,1.3381,1.3438,1.348,1.3528,1.3599,1.3657,1.3695,1.3754,1.3789,1.3792,1.3805,1.3803,1.381,1.3727,1.371,1.3802,1.3802,1.3802,1.3802,1.3802,1.3802,1.318,1.325,1.3265,1.3352,1.338,1.3443,1.3471,1.3508,1.3542,1.362,1.3668,1.3691,1.3732,1.3794,1.3848,1.3858,1.388,1.3894,1.3903,1.3825,1.3816,1.3807,1.3791,1.3898,1.3898,1.3982,1.3983,1.3983]},{"header":{"parameterUnit":"m.s-1","parameterCategory":1,"la1":30.2991,"la2":30.254,"lo1":-89.0895,"lo2":-89.0444,"dy":0.0017,"dx":0.0017,"nx":28,"ny":28,"refTime":"2023-07-30T03:00:00:Z","depth":0,"parameterNumber":3,"parameterNumberName":"V-component_of_WINDS"},"data":[0,0,0,0,0,0,0,0,0,0,0,0,0,0,0,0,0,0,0,0,0,0,0,0,0,0,0,0,0,0,0,0,0,0,0,0,0,0,0,0,0,0,0,0,0,0,0,0,0,0,0,0,0,0,0,0,0,0,2.0514,2.0514,0,2.0545,2.0546,2.0546,2.0535,2.0535,2.0534,2.0533,2.0564,2.0566,2.0567,0,0,0,0,0,0,0,0,0,0,0,0,0,2.0441,2.0442,2.0514,2.0514,2.0515,2.0545,2.0546,2.0546,2.0535,2.0535,2.0534,2.0533,2.0564,2.0565,2.0567,0,0,0,0,0,0,0,0,0,0,0,0,0,2.0472,2.0443,2.0514,2.0513,2.0513,2.0545,2.0546,2.0546,2.0536,2.0535,2.0534,2.0533,2.0563,2.0565,2.0567,2.0601,0,0,2.0574,2.0575,0,0,0,0,0,0,0,0,2.0471,2.0475,2.0513,2.0513,2.0514,2.0535,2.0531,2.0565,2.0536,2.0527,2.0533,2.0532,2.0555,2.0558,2.0566,2.0603,2.0604,2.0574,2.0576,2.0577,2.0577,0,0,0,0,0,0,0,2.0468,2.0474,2.0526,2.0513,2.0514,2.051,2.0513,2.0537,2.0547,2.0528,2.0527,2.0531,2.0555,2.0564,2.0567,2.0605,2.0574,2.0576,2.0577,2.0578,2.0666,2.0666,0,0,0,0,0,0,2.0466,2.0472,2.0525,2.0527,2.0489,2.0512,2.0516,2.0529,2.0546,2.0548,2.0532,2.053,2.0561,2.0564,2.0568,2.0605,2.0576,2.0579,2.058,2.0665,2.0666,2.0667,0,0,0,0,0,0,2.0465,2.0471,2.0524,2.0499,2.0506,2.0514,2.053,2.0531,2.0539,2.0549,2.0551,2.0539,2.056,2.0565,2.0592,2.0606,2.058,2.0582,2.0663,2.0665,2.0666,2.0683,0,0,0,0,0,0,2.0463,2.0471,2.0485,2.05,2.0507,2.0549,2.0531,2.0532,2.0543,2.0542,2.0557,2.0558,2.056,2.0589,2.0594,2.0609,2.0583,2.0662,2.0664,2.0666,2.0681,2.0685,2.0688,0,0,0,0,0,2.046,2.0489,2.0486,2.0492,2.0525,2.055,2.0554,2.0556,2.0545,2.0558,2.0563,2.0558,2.0604,2.0592,2.0598,2.0613,2.0661,2.0663,2.0666,2.068,2.0684,2.0688,0,0,0,0,0,0,2.0477,2.0491,2.0488,2.0523,2.0535,2.0548,2.0565,2.0561,2.0577,2.0575,2.0575,2.0579,2.0606,2.0613,2.0598,2.0645,2.0631,2.0634,2.0639,2.0644,2.0647,2.0644,2.0585,0,0,0,0,0,2.0485,2.0504,2.0516,2.0545,2.0551,2.0557,2.0568,2.0568,2.0581,2.0586,2.0594,2.0606,2.0622,2.0634,2.065,2.0682,2.0683,2.0695,2.0699,2.0702,2.0704,2.0718,2.0722,2.0674,2.0674,2.0674,0,0,2.0501,2.0511,2.0524,2.0549,2.0558,2.0577,2.0562,2.0583,2.0596,2.0589,2.0614,2.062,2.0633,2.0662,2.0675,2.0668,2.0718,2.0704,2.0707,2.0708,2.072,2.0725,2.0729,2.0676,2.0676,2.0675,0,0,2.0539,2.055,2.0574,2.0583,2.0597,2.06,2.0606,2.0619,2.0622,2.0648,2.0641,2.0656,2.0687,2.0695,2.0703,2.074,2.0734,2.0745,2.0763,2.0776,2.078,2.0783,2.0793,2.0797,2.0748,2.0748,2.0748,0,2.0557,2.0586,2.0587,2.0607,2.0617,2.061,2.0633,2.0642,2.066,2.0666,2.0659,2.0693,2.0702,2.0731,2.0739,2.0747,2.0751,2.0743,2.0779,2.0782,2.0786,2.0795,2.0799,2.0749,2.0749,2.0749,2.0749,0,2.0606,2.0625,2.0642,2.0659,2.0671,2.0693,2.0695,2.0706,2.0704,2.0707,2.0731,2.0741,2.0757,2.0764,2.0763,2.0791,2.0786,2.0779,2.0765,2.0791,2.08,2.0804,2.0751,2.075,2.075,2.075,0,0,2.0657,2.0671,2.0677,2.0683,2.0696,2.0711,2.073,2.0746,2.0754,2.0767,2.0781,2.0805,2.0797,2.0806,2.0806,2.0818,2.0842,2.0808,2.0808,2.0812,2.087,2.0874,2.0879,2.0838,2.0839,2.084,2.0868,0,2.0694,2.0728,2.0728,2.0759,2.0775,2.0767,2.0784,2.0793,2.0796,2.0809,2.0811,2.0827,2.0817,2.0822,2.0833,2.0837,2.0853,2.0835,2.085,2.085,2.0845,2.0884,2.0889,2.0915,2.0872,2.0872,2.0873,0,2.0742,2.0754,2.0787,2.0794,2.0801,2.0816,2.0827,2.0841,2.085,2.085,2.0859,2.0855,2.0873,2.0859,2.0882,2.0869,2.0875,2.0877,2.0878,2.0878,2.0862,2.0883,2.0924,2.0927,2.0879,2.0879,2.0878,0,2.0772,2.0796,2.0818,2.0824,2.0834,2.0844,2.0848,2.0856,2.0864,2.0874,2.0879,2.0892,2.0898,2.0907,2.0906,2.0896,2.0928,2.0914,2.0927,2.0927,2.0933,2.0933,2.0974,2.094,2.094,2.094,2.094,0,2.0812,2.0831,2.0831,2.0844,2.0865,2.0863,2.0883,2.0886,2.0893,2.0905,2.09,2.0911,2.091,2.0921,2.092,2.0937,2.0941,2.0941,2.094,2.094,2.094,2.0943,2.094,2.0941,2.0941,2.0941,2.0941,0,2.0848,2.0849,2.0872,2.0878,2.088,2.0895,2.09,2.0911,2.0912,2.0928,2.0931,2.0933,2.0945,2.0945,2.096,2.0959,2.0979,2.0978,2.0976,2.0975,2.0987,2.0985,2.103,2.1035,2.1,2.1,2.1001,0,2.0873,2.0887,2.0894,2.0902,2.0906,2.0919,2.0926,2.0925,2.0932,2.0941,2.0951,2.0963,2.0972,2.0991,2.0993,2.1004,2.1001,2.1016,2.1002,2.1001,2.0998,2.0996,2.0996,2.1018,2.1018,2.1019,2.1019,0,2.0915,2.0914,2.0925,2.0935,2.0943,2.0952,2.0959,2.0966,2.0964,2.0973,2.0985,2.0992,2.1005,2.1016,2.1025,2.1029,2.1023,2.1023,2.1026,2.1026,2.1023,2.1022,2.0981,2.1022,2.1022,2.1022,2.1021,2.1021,2.0944,2.0955,2.0961,2.0972,2.0977,2.0983,2.0993,2.0995,2.1005,2.1015,2.1014,2.1026,2.1032,2.1043,2.1047,2.1056,2.1051,2.1056,2.1057,2.1057,2.1058,2.1023,2.1058,2.1058,2.1058,2.1058,2.1058,0,2.0983,2.0986,2.0997,2.1006,2.1014,2.1008,2.1015,2.1022,2.1033,2.1039,2.1047,2.1059,2.1069,2.1071,2.108,2.1086,2.1083,2.1088,2.1087,2.1087,2.1063,2.1059,2.109,2.109,2.109,2.109,2.109,2.109,2.1005,2.1022,2.1021,2.1039,2.1041,2.1053,2.1057,2.1062,2.1066,2.108,2.1088,2.1089,2.1092,2.11,2.1108,2.1108,2.1111,2.1116,2.1115,2.1093,2.1089,2.1086,2.1082,2.1117,2.1117,2.1138,2.1138,2.1138]}]]